Richard B. Russell Lake Weather Center

Moon Phase Calendar



Richard B. Russell Lake Water Level
Online Cameras

 


      

Current Conditions in Calhoun Falls
7/27/2021 2:27:20 PM

88°F
Feels Like 96
Clouds
Humidity
60%
Pressure
29.97"
Wind
3.1 mph (N)
Dew Point
73°F
UV Index
8/10 (Very High)
Visibility
6 mi

Hourly Forecast

Date & Time Tue, Jul 27
2:00 PM
Tue, Jul 27
3:00 PM
Tue, Jul 27
4:00 PM
Tue, Jul 27
5:00 PM
Tue, Jul 27
6:00 PM
Tue, Jul 27
7:00 PM
Tue, Jul 27
8:00 PM
Tue, Jul 27
9:00 PM
Tue, Jul 27
10:00 PM
Tue, Jul 27
11:00 PM
Wed, Jul 28
12:00 AM
Wed, Jul 28
1:00 AM
Wed, Jul 28
2:00 AM
Wed, Jul 28
3:00 AM
Wed, Jul 28
4:00 AM
Wed, Jul 28
5:00 AM
Wed, Jul 28
6:00 AM
Wed, Jul 28
7:00 AM
Wed, Jul 28
8:00 AM
Wed, Jul 28
9:00 AM
Wed, Jul 28
10:00 AM
Wed, Jul 28
11:00 AM
Wed, Jul 28
12:00 PM
Wed, Jul 28
1:00 PM
Wed, Jul 28
2:00 PM
Wed, Jul 28
3:00 PM
Wed, Jul 28
4:00 PM
Wed, Jul 28
5:00 PM
Wed, Jul 28
6:00 PM
Wed, Jul 28
7:00 PM
Wed, Jul 28
8:00 PM
Wed, Jul 28
9:00 PM
Wed, Jul 28
10:00 PM
Wed, Jul 28
11:00 PM
Thu, Jul 29
12:00 AM
Thu, Jul 29
1:00 AM
Thu, Jul 29
2:00 AM
Thu, Jul 29
3:00 AM
Thu, Jul 29
4:00 AM
Thu, Jul 29
5:00 AM
Thu, Jul 29
6:00 AM
Thu, Jul 29
7:00 AM
Thu, Jul 29
8:00 AM
Thu, Jul 29
9:00 AM
Thu, Jul 29
10:00 AM
Thu, Jul 29
11:00 AM
Thu, Jul 29
12:00 PM
Thu, Jul 29
1:00 PM
Condition
Clouds

Clouds

Clouds

Clouds

Clouds

Clouds

Clouds

Clouds

Rain

Rain

Rain

Rain

Clouds

Clouds

Clouds

Rain

Clouds

Clouds

Clouds

Clouds

Clouds

Clouds

Clouds

Clouds

Clouds

Clear

Clouds

Clouds

Clouds

Clouds

Clouds

Clear

Clear

Clear

Clear

Clear

Clear

Clear

Clear

Clear

Clear

Clear

Clear

Clear

Clear

Clear

Clear

Clear
Temperature 88°F88°F88°F89°F89°F88°F84°F81°F79°F76°F76°F74°F73°F73°F72°F72°F72°F72°F74°F79°F84°F89°F93°F96°F98°F98°F98°F97°F96°F92°F86°F82°F81°F79°F78°F77°F76°F75°F75°F75°F74°F74°F77°F82°F87°F91°F95°F98°F
Feels Like 96°F95°F95°F96°F96°F96°F91°F85°F80°F78°F77°F76°F75°F75°F74°F73°F73°F73°F76°F80°F89°F96°F100°F102°F104°F104°F102°F100°F100°F97°F92°F86°F84°F79°F79°F78°F77°F76°F76°F76°F75°F75°F78°F86°F92°F97°F101°F102°F
Cloudiness 100%100%100%100%99%99%92%33%25%47%60%68%74%100%98%99%99%92%92%69%58%41%32%25%21%10%19%18%23%27%25%5%2%2%1%1%1%0%0%0%0%0%0%0%0%0%0%0%
Visibility 6 mi6 mi6 mi6 mi6 mi6 mi6 mi6 mi6 mi6 mi6 mi6 mi6 mi6 mi6 mi6 mi6 mi6 mi6 mi6 mi6 mi6 mi6 mi6 mi6 mi6 mi6 mi6 mi6 mi6 mi6 mi6 mi6 mi6 mi6 mi6 mi6 mi6 mi6 mi6 mi6 mi6 mi6 mi6 mi6 mi6 mi6 mi6 mi
Precipitation 14%0%0%0%0%4%3%33%54%69%79%77%73%13%9%34%10%8%4%0%0%0%0%0%0%0%0%0%0%0%0%0%0%0%0%0%0%0%0%0%0%0%0%0%0%0%0%0%
Humidity 60%59%60%58%56%60%70%74%78%82%84%90%96%97%97%96%95%94%90%80%67%56%49%43%40%37%35%35%38%49%61%64%67%70%72%75%78%81%81%81%83%84%79%68%59%50%43%37%
Dew Point 73°F72°F72°F72°F71°F73°F73°F72°F71°F70°F70°F71°F72°F72°F71°F71°F70°F70°F71°F72°F72°F71°F71°F70°F69°F68°F66°F65°F66°F70°F71°F69°F69°F69°F68°F68°F69°F69°F69°F68°F68°F68°F70°F70°F71°F70°F69°F67°F
Pressure 29.97"29.97"29.97"29.94"29.94"29.94"29.91"29.91"29.94"29.94"29.97"29.97"29.97"29.97"29.97"29.97"29.97"29.97"29.97"30"30"30"29.97"29.97"29.94"29.94"29.91"29.88"29.88"29.88"29.88"29.88"29.91"29.94"29.94"29.94"29.94"29.94"29.94"29.94"29.94"29.97"29.97"30"30"30"29.97"29.97"
Wind Speed 3.1 mph2.9 mph2.2 mph2.6 mph2.9 mph2.8 mph3.6 mph4.5 mph4 mph2.9 mph1.8 mph4.1 mph4.9 mph5 mph4.7 mph4.1 mph4.3 mph4.2 mph4.2 mph4 mph2.7 mph1.6 mph1.3 mph1.5 mph0.6 mph1.4 mph2.7 mph4.4 mph5.1 mph4.4 mph2.7 mph1.7 mph3.1 mph3.6 mph3.8 mph4.1 mph2.5 mph0.9 mph3.5 mph4.5 mph3.1 mph2.5 mph2.4 mph1.9 mph1.6 mph0.4 mph2.2 mph3.1 mph
Wind
Direction
353°
N
314°
NW
300°
WNW
293°
WNW
302°
WNW
323°
NW
336°
NNW
345°
NNW
334°
NNW
20°
NNE
140°
SE
204°
SSW
230°
SW
260°
W
274°
W
293°
WNW
302°
WNW
315°
NW
320°
NW
328°
NNW
318°
NW
340°
NNW
44°
NE
101°
E
78°
ENE
330°
NNW
304°
NW
281°
W
274°
W
263°
W
254°
WSW
246°
WSW
103°
ESE
128°
SE
159°
SSE
176°
S
146°
SE
72°
ENE
328°
NNW
333°
NNW
360°
N
62°
ENE
39°
NE
76°
ENE
73°
ENE
210°
SSW
319°
NW
314°
NW

Daily Forecast

Date High Low Precip. Humidity
Today
Jul 27

Rain
89 °F
70 °F
92%
61%
Wednesday
Jul 28

Rain
98 °F
72 °F
79%
43%
Thursday
Jul 29

Clear
99 °F
75 °F
0%
33%
Friday
Jul 30

Clouds
100 °F
74 °F
0%
30%
Saturday
Jul 31

Rain
95 °F
77 °F
29%
43%
Sunday
Aug 1

Rain
96 °F
75 °F
24%
38%
Monday
Aug 2

Rain
81 °F
72 °F
89%
67%
Tuesday
Aug 3

Rain
82 °F
68 °F
80%
57%
Wednesday
Aug 4

Rain
69 °F
65 °F
52%
79%
Thursday
Aug 5

Clouds
87 °F
61 °F
0%
45%
Friday
Aug 6

Clear
93 °F
68 °F
0%
32%
Saturday
Aug 7

Clouds
95 °F
70 °F
0%
33%
Sunday
Aug 8

Rain
94 °F
72 °F
33%
38%
Monday
Aug 9

Rain
92 °F
70 °F
38%
41%
Tuesday
Aug 10

Clouds
93 °F
71 °F
11%
37%
Wednesday
Aug 11

Rain
95 °F
71 °F
28%
34%

Temperature 8-14 Day Outlook



Precipitation 8-14 Day Outlook




Quick Links
Richard B. Russell Lake News
Richard B. Russell Lake Photos
Richard B. Russell Lake Videos




About Us
Contact Us
Site Map
Search Site
Advertise With Us
   
Russell.LakesOnline.com
THE RICHARD B. RUSSELL LAKE WEBSITE

Copyright 2021, Lakes Online
Privacy    |    Legal